Regional Weather Roundup
Issued by NWS Newport/Morehead, NC

Current Version | Previous Version | Graphics & Text | Print | Product List | Glossary Off
Versions: 1 2 3 4 5 6 7 8 9 10 11 12 13 14 15 16 17 18 19 20 21 22 23 24 25 26 27 28 29 30 31 32 33 34 35 36 37 38 39 40 41 42 43 44 45 46 47 48 49 50

000
ASUS42 KMHX 281122
RWRMHX
WEATHER ROUNDUP FOR EASTERN NORTH CAROLINA
NATIONAL WEATHER SERVICE NEWPORT/MOREHEAD CITY NC
700 AM EDT MON JUL 28 2014

NOTE: "FAIR" INDICATES FEW OR NO CLOUDS BELOW 12,000 FEET
WITH NO SIGNIFICANT WEATHER AND/OR OBSTRUCTIONS TO VISIBILITY

NCZ015>017-031-032-045>047-102-103-281200-
NORTH COAST

CITY           SKY/WX    TMP DP  RH WIND       PRES   REMARKS
EDENTON        CLOUDY    79  73  82 SW9       29.73R
ELIZABETH CITY CLOUDY    79  71  76 SW9       29.69F
KITTY HAWK     PTSUNNY   82  73  76 SW10      29.71S
MANTEO         NOT AVBL

$$

NCZ045>047-081-094-103-104-281200-
CENTRAL COAST

CITY           SKY/WX    TMP DP  RH WIND       PRES   REMARKS
FRISCO         MOCLDY    81  80  97 W15       29.77S FOG
SWANQUARTER      N/A     82 N/A N/A SW14      29.71S

$$

NCZ095-097-098-100-101-281200-
SOUTHERN COAST

CITY           SKY/WX    TMP DP  RH WIND       PRES   REMARKS
BEAUFORT       PTCLDY    83  76  79 SW13        N/A
CEDAR ISLAND     N/A     84 N/A N/A S10G17    29.79S
JACKSONVILLE   MOCLDY    80  73  79 SW8       29.77F
NEWPORT        NOT AVBL
PINEY ISLAND   PTSUNNY   84  79  85 SW10      29.77S HAZE
WILMINGTON     MOCLDY    82  73  74 SW8       29.80S


$$

NCZ011>013-027>030-043-044-078>080-089-090>093-098-281200-
COASTAL PLAIN

CITY           SKY/WX    TMP DP  RH WIND       PRES   REMARKS
AHOSKIE        CLOUDY    74  67  79 CALM      29.72R
CLINTON        CLOUDY    79  72  79 W5        29.79R
ELIZABETHTOWN  CLOUDY    80  73  79 SW3       29.79S
GOLDSBORO      CLOUDY    79  71  75 SW9       29.74R
GREENVILLE     CLOUDY    79  70  73 SW6       29.77R
HAVELOCK       MOCLDY    81  73  76 SW9       29.78F
KENANSVILLE    CLOUDY    78  71  79 SW3       29.78R
KINSTON        CLOUDY    81  70  69 SW6       29.76R
NEW BERN       MOCLDY    81  73  76 SW7       29.77F
RICHLANDS      CLOUDY    79  72  78 SW7       29.77F
ROANOKE RAPIDS NOT AVBL
ROCKY MOUNT    MOCLDY    78  61  55 W6        29.73S
WASHINGTON     CLOUDY    78  72  81 SW6       29.74S
WHITEVILLE     CLOUDY    79  73  82 CALM      29.81R

$$

AMZ130-135-150-152-154-156-158-170-250-252-270-ANZ085-086-088-633-658-670-281200-
MARINE OBSERVATIONS

STATION/POSITION TIME  TEMP    WIND        PRES    WAVE   SWELL
                       AIR SEA DIR/SP/G            HT/PER HT/PER
                 (UTC) (F)     (DEG/KT/KT) (MB)    (FT/S) (FT/S)
CHESAPEAKE LIGHT NOT AVBL
BUOY 44014       1100   80 78  220/ 19/ 21 1004.6    4/ 5   2/10
DUCK             1100   82 62  240/ 18/ 23 1005.4
2E DUCK          1100                        N/A     2/ 9
OREGON INLET     1100   82 81  220/ 14/ 18 1006.8
BUOY 44095       1100      78                N/A     4/ 6
20E OREGON INLET NOT AVBL
HATTERAS CG      1100   81 81  230/ 13/ 20 1008.5
DIAMOND BUOY     1100          VRB 21/ 27  1008.0    6/ 6   2/ 9
CAPE LOOKOUT     1100   82     230/ 12/ 14 1008.8
BEAUFORT LAB     1100   83 83  230/  4/  9 1008.5
30 SE NEW RIVER  1100   83 81  240/ 16/ 19 1009.5    6/ 6   2/ 8
5 SE WRIGHTSVILL 1100   80 82  260/ 12/ 14   N/A
BUOY 41002       1025   81 80  240/ 17/ 21 1014.9    6/ 6   2/11
BUOY 41004       1100   84 83  230/ 16/ 19 1011.2    5/ 6   2/ 8

$$



USA.gov is the U.S. government's official web portal to all federal, state and local government web resources and services.